Time,TemperatureF,DewpointF,PressureIn,WindDirection,WindDirectionDegrees,WindSpeedMPH,WindSpeedGustMPH,Humidity,HourlyPrecipIn,Conditions,Clouds,dailyrainin,SoftwareType,DateUTC
2015-03-28 00:07:00,68.2,31.0,29.84,NE,45,2.7,-999.0,25,-99.99,,,0.00,Acu-Link.com,2015-03-28 07:07:00,
2015-03-28 00:22:00,68.0,31.8,29.85,NE,45,3.2,-999.0,26,-99.99,,,0.00,Acu-Link.com,2015-03-28 07:22:00,
2015-03-28 00:37:00,67.1,32.0,29.85,West,270,3.2,-999.0,27,-99.99,,,0.00,Acu-Link.com,2015-03-28 07:37:00,
2015-03-28 00:52:00,65.8,31.8,29.85,North,0,5.8,-999.0,28,-99.99,,,0.00,Acu-Link.com,2015-03-28 07:52:00,
2015-03-28 01:07:00,67.5,32.3,29.84,ENE,67,1.7,-999.0,27,-99.99,,,0.00,Acu-Link.com,2015-03-28 08:07:00,
2015-03-28 01:23:00,66.4,32.3,29.84,ESE,112,3.7,-999.0,28,-99.99,,,0.00,Acu-Link.com,2015-03-28 08:23:00,
2015-03-28 01:38:00,65.7,31.7,29.84,North,0,4.2,-999.0,28,-99.99,,,0.00,Acu-Link.com,2015-03-28 08:38:00,
2015-03-28 01:53:00,64.8,32.6,29.84,NNE,22,4.7,-999.0,30,-99.99,,,0.00,Acu-Link.com,2015-03-28 08:53:00,
2015-03-28 02:08:00,66.2,32.1,29.84,North,0,4.7,-999.0,28,-99.99,,,0.00,Acu-Link.com,2015-03-28 09:08:00,
2015-03-28 02:23:00,66.0,33.7,29.84,NE,45,2.7,-999.0,30,-99.99,,,0.00,Acu-Link.com,2015-03-28 09:23:00,
2015-03-28 02:38:00,64.8,32.6,29.84,North,0,1.7,-999.0,30,-99.99,,,0.00,Acu-Link.com,2015-03-28 09:38:00,
2015-03-28 02:53:00,63.5,32.3,29.85,NNW,337,4.2,-999.0,31,-99.99,,,0.00,Acu-Link.com,2015-03-28 09:53:00,
2015-03-28 03:08:00,62.2,32.7,29.84,North,0,3.7,-999.0,33,-99.99,,,0.00,Acu-Link.com,2015-03-28 10:08:00,
2015-03-28 03:24:00,62.2,32.7,29.84,North,0,6.8,-999.0,33,-99.99,,,0.00,Acu-Link.com,2015-03-28 10:24:00,
2015-03-28 03:39:00,62.1,32.7,29.83,NNW,337,4.2,-999.0,33,-99.99,,,0.00,Acu-Link.com,2015-03-28 10:39:00,
2015-03-28 03:54:00,64.0,37.9,29.84,SE,135,0.0,-999.0,38,-99.99,,,0.00,Acu-Link.com,2015-03-28 10:54:00,
2015-03-28 04:09:00,60.8,33.0,29.84,North,0,5.8,-999.0,35,-99.99,,,0.00,Acu-Link.com,2015-03-28 11:09:00,
2015-03-28 04:24:00,60.8,33.7,29.84,NNE,22,4.2,-999.0,36,-99.99,,,0.00,Acu-Link.com,2015-03-28 11:24:00,
2015-03-28 04:39:00,60.3,33.9,29.84,NNE,22,3.2,-999.0,37,-99.99,,,0.00,Acu-Link.com,2015-03-28 11:39:00,
2015-03-28 04:55:00,60.6,36.8,29.84,ESE,112,3.7,-999.0,41,-99.99,,,0.00,Acu-Link.com,2015-03-28 11:55:00,
2015-03-28 05:10:00,60.1,34.4,29.84,NE,45,2.7,-999.0,38,-99.99,,,0.00,Acu-Link.com,2015-03-28 12:10:00,
2015-03-28 05:25:00,59.5,33.9,29.84,NE,45,3.7,-999.0,38,-99.99,,,0.00,Acu-Link.com,2015-03-28 12:25:00,
2015-03-28 05:40:00,62.2,33.5,29.84,ESE,112,2.2,-999.0,34,-99.99,,,0.00,Acu-Link.com,2015-03-28 12:40:00,
2015-03-28 05:55:00,62.2,38.2,29.84,East,90,2.7,-999.0,41,-99.99,,,0.00,Acu-Link.com,2015-03-28 12:55:00,
2015-03-28 06:10:00,59.7,48.3,29.85,SSW,202,4.2,-999.0,66,-99.99,,,0.00,Acu-Link.com,2015-03-28 13:10:00,
2015-03-28 06:25:00,57.6,50.4,29.85,ENE,67,2.7,-999.0,77,-99.99,,,0.00,Acu-Link.com,2015-03-28 13:25:00,
2015-03-28 06:40:00,55.6,46.0,29.86,North,0,3.7,-999.0,70,-99.99,,,0.00,Acu-Link.com,2015-03-28 13:40:00,
2015-03-28 06:55:00,55.0,43.5,29.86,ESE,112,2.2,-999.0,65,-99.99,,,0.00,Acu-Link.com,2015-03-28 13:55:00,
2015-03-28 07:10:00,55.4,43.0,29.86,NNE,22,4.2,-999.0,63,-99.99,,,0.00,Acu-Link.com,2015-03-28 14:10:00,
2015-03-28 07:26:00,55.2,41.1,29.86,NW,315,2.2,-999.0,59,-99.99,,,0.00,Acu-Link.com,2015-03-28 14:26:00,
2015-03-28 07:41:00,55.9,42.6,29.86,NE,45,3.7,-999.0,61,-99.99,,,0.00,Acu-Link.com,2015-03-28 14:41:00,
2015-03-28 07:56:00,58.6,43.9,29.86,SSW,202,0.0,-999.0,58,-99.99,,,0.00,Acu-Link.com,2015-03-28 14:56:00,
2015-03-28 08:11:00,64.8,49.7,29.87,ESE,112,0.0,-999.0,58,-99.99,,,0.00,Acu-Link.com,2015-03-28 15:11:00,
2015-03-28 08:26:00,70.3,55.7,29.88,ENE,67,0.0,-999.0,60,-99.99,,,0.00,Acu-Link.com,2015-03-28 15:26:00,
2015-03-28 08:41:00,74.7,57.9,29.88,West,270,0.0,-999.0,56,-99.99,,,0.00,Acu-Link.com,2015-03-28 15:41:00,
2015-03-28 08:57:00,77.2,58.7,29.89,SW,225,0.0,-999.0,53,-99.99,,,0.00,Acu-Link.com,2015-03-28 15:57:00,
2015-03-28 09:12:00,78.3,59.2,29.88,WSW,247,1.7,-999.0,52,-99.99,,,0.00,Acu-Link.com,2015-03-28 16:12:00,
2015-03-28 09:27:00,79.0,59.3,29.89,SW,225,0.0,-999.0,51,-99.99,,,0.00,Acu-Link.com,2015-03-28 16:27:00,
2015-03-28 09:42:00,80.6,59.6,29.89,SW,225,1.1,-999.0,49,-99.99,,,0.00,Acu-Link.com,2015-03-28 16:42:00,
2015-03-28 09:57:00,78.4,59.3,29.89,SSW,202,3.7,-999.0,52,-99.99,,,0.00,Acu-Link.com,2015-03-28 16:57:00,
2015-03-28 10:12:00,79.0,60.9,29.89,SSW,202,2.2,-999.0,54,-99.99,,,0.00,Acu-Link.com,2015-03-28 17:12:00,
2015-03-28 10:27:00,75.9,60.5,29.89,SE,135,1.7,-999.0,59,-99.99,,,0.00,Acu-Link.com,2015-03-28 17:27:00,
2015-03-28 10:42:00,68.7,59.7,29.89,WSW,247,4.2,-999.0,73,-99.99,,,0.00,Acu-Link.com,2015-03-28 17:42:00,
2015-03-28 10:57:00,71.2,60.1,29.90,South,180,2.7,-999.0,68,-99.99,,,0.00,Acu-Link.com,2015-03-28 17:57:00,
2015-03-28 11:13:00,69.8,59.6,29.91,SSW,202,4.2,-999.0,70,-99.99,,,0.00,Acu-Link.com,2015-03-28 18:13:00,
2015-03-28 11:28:00,72.5,60.1,29.91,SW,225,3.7,-999.0,65,-99.99,,,0.00,Acu-Link.com,2015-03-28 18:28:00,
2015-03-28 11:43:00,75.0,60.2,29.90,SW,225,3.2,-999.0,60,-99.99,,,0.00,Acu-Link.com,2015-03-28 18:43:00,
2015-03-28 11:58:00,75.4,60.5,29.90,East,90,0.0,-999.0,60,-99.99,,,0.00,Acu-Link.com,2015-03-28 18:58:00,
2015-03-28 12:13:00,77.2,61.3,29.89,NE,45,1.1,-999.0,58,-99.99,,,0.00,Acu-Link.com,2015-03-28 19:13:00,
2015-03-28 12:28:00,77.7,60.7,29.89,WSW,247,2.7,-999.0,56,-99.99,,,0.00,Acu-Link.com,2015-03-28 19:28:00,
2015-03-28 12:43:00,77.9,60.9,29.89,NE,45,2.2,-999.0,56,-99.99,,,0.00,Acu-Link.com,2015-03-28 19:43:00,
2015-03-28 12:58:00,78.4,60.4,29.88,ESE,112,0.0,-999.0,54,-99.99,,,0.00,Acu-Link.com,2015-03-28 19:58:00,
2015-03-28 13:13:00,77.5,59.5,29.87,ESE,112,1.7,-999.0,54,-99.99,,,0.00,Acu-Link.com,2015-03-28 20:13:00,
2015-03-28 13:29:00,77.2,58.7,29.86,NE,45,2.7,-999.0,53,-99.99,,,0.00,Acu-Link.com,2015-03-28 20:29:00,
2015-03-28 13:44:00,79.0,60.4,29.86,WNW,292,1.7,-999.0,53,-99.99,,,0.00,Acu-Link.com,2015-03-28 20:44:00,
2015-03-28 13:59:00,78.1,61.1,29.86,ESE,112,1.7,-999.0,56,-99.99,,,0.00,Acu-Link.com,2015-03-28 20:59:00,
2015-03-28 14:14:00,77.2,61.3,29.85,East,90,2.7,-999.0,58,-99.99,,,0.00,Acu-Link.com,2015-03-28 21:14:00,
2015-03-28 14:29:00,77.0,61.1,29.85,ESE,112,1.7,-999.0,58,-99.99,,,0.00,Acu-Link.com,2015-03-28 21:29:00,
2015-03-28 14:44:00,77.9,60.9,29.84,ENE,67,2.7,-999.0,56,-99.99,,,0.00,Acu-Link.com,2015-03-28 21:44:00,
2015-03-28 14:59:00,77.5,60.5,29.84,NNE,22,4.2,-999.0,56,-99.99,,,0.00,Acu-Link.com,2015-03-28 21:59:00,
2015-03-28 15:14:00,78.3,60.3,29.83,South,180,1.1,-999.0,54,-99.99,,,0.00,Acu-Link.com,2015-03-28 22:14:00,
2015-03-28 15:29:00,76.8,58.9,29.82,NNE,22,1.7,-999.0,54,-99.99,,,0.00,Acu-Link.com,2015-03-28 22:29:00,
2015-03-28 15:44:00,76.5,61.6,29.82,SSW,202,1.7,-999.0,60,-99.99,,,0.00,Acu-Link.com,2015-03-28 22:44:00,
2015-03-28 16:00:00,75.9,61.0,29.82,South,180,1.1,-999.0,60,-99.99,,,0.00,Acu-Link.com,2015-03-28 23:00:00,
2015-03-28 16:15:00,73.0,61.0,29.82,East,90,1.7,-999.0,66,-99.99,,,0.00,Acu-Link.com,2015-03-28 23:15:00,
2015-03-28 16:30:00,71.1,60.8,29.83,WSW,247,6.8,-999.0,70,-99.99,,,0.00,Acu-Link.com,2015-03-28 23:30:00,
2015-03-28 16:45:00,72.0,61.3,29.82,West,270,4.7,-999.0,69,-99.99,,,0.00,Acu-Link.com,2015-03-28 23:45:00,
2015-03-28 17:00:00,72.1,61.8,29.81,SW,225,5.8,-999.0,70,-99.99,,,0.00,Acu-Link.com,2015-03-29 00:00:00,
2015-03-28 17:16:00,70.9,61.4,29.82,SSE,157,3.7,-999.0,72,-99.99,,,0.00,Acu-Link.com,2015-03-29 00:16:00,
2015-03-28 17:32:00,70.7,61.2,29.82,West,270,6.3,-999.0,72,-99.99,,,0.00,Acu-Link.com,2015-03-29 00:32:00,
2015-03-28 17:47:00,71.4,61.1,29.81,SSE,157,2.2,-999.0,70,-99.99,,,0.00,Acu-Link.com,2015-03-29 00:47:00,
2015-03-28 18:02:00,72.0,61.3,29.82,West,270,0.0,-999.0,69,-99.99,,,0.00,Acu-Link.com,2015-03-29 01:02:00,
2015-03-28 18:17:00,72.5,60.9,29.81,SW,225,0.0,-999.0,67,-99.99,,,0.00,Acu-Link.com,2015-03-29 01:17:00,
2015-03-28 18:32:00,71.4,60.7,29.81,NNW,337,0.0,-999.0,69,-99.99,,,0.00,Acu-Link.com,2015-03-29 01:32:00,